Location: DARK SKY Beskydy - Park tmavé oblohy, www.darkskybeskydy.cz
(49.4926°N, 18.5016°E)
Time: 10:47:00
(UTC+02:00)

Transit 4A - Pass Details

Date: 25 February 2024
Orbit: 871 x 971 km, 66.8° (Epoch: 24 April)

Event Time Altitude Azimuth Distance (km) Brightness Sun altitude
Exits shadow 03:17:45 28° 349° (N) 1,654 9.3 -32.6°
Drops below altitude 10° 03:21:35 10° 26° (NNE) 2,578 10.8 -32.0°
Sets 03:24:23 0° 37° (NE) 3,507 11.8 -31.6°
